Location: Arezzo
(43.4170°N, 11.8830°E)
Time: 20:46:27
(UTC+01:00)

STARLINK-2709 - Pass Details

Date: 27 October 2021
Orbit: 546 x 548 km, 53.1° (Epoch: 01 December)

Event Time Altitude Azimuth Distance (km) Brightness Sun altitude
Exits shadow 05:16:39 24° 147° (SSE) 1,155 5.4 -26.8°
Maximum altitude 05:17:17 25° 132° (SE) 1,125 5.5 -26.7°
Drops below altitude 10° 05:20:41 10° 76° (ENE) 1,818 7.3 -26.1°
Sets 05:23:11 0° 63° (ENE) 2,715 8.3 -25.6°
